• In Deutschland
  • Länderverzeichnis
  • Für 7 Tage
  • Wassertemperatur
  • Satellitenkarten
  • Wetterkarte
  • Widgets
  • user-avatar
    Anmelden

    Stündliche Wetter Tatninov

    Heute, 15 Juli, Sonntag

    Zeit Temperatur Niederschläge Wind Luftdruck Luftfeuchtigkeit
    00:00 +27°C° 0 mm 3 m/S 748 mmHg 57%
    01:00 +26°C° 0 mm 2 m/S 748 mmHg 60%
    02:00 +25°C° 0 mm 2 m/S 748 mmHg 63%
    03:00 +25°C° 0 mm 1 m/S 748 mmHg 63%
    04:00 +25°C° 0,1 mm 1 m/S 748 mmHg 63%
    05:00 +26°C° 0,1 mm 1 m/S 748 mmHg 63%
    06:00 +26°C° 0,1 mm 1 m/S 748 mmHg 64%
    07:00 +27°C° 0 mm 1 m/S 748 mmHg 58%
    08:00 +29°C° 0 mm 2 m/S 748 mmHg 53%
    09:00 +31°C° 0 mm 1 m/S 748 mmHg 48%
    10:00 +32°C° 0 mm 1 m/S 748 mmHg 44%
    11:00 +33°C° 0 mm 1 m/S 748 mmHg 40%
    12:00 +35°C° 0 mm 2 m/S 748 mmHg 36%
    13:00 +35°C° 0 mm 2 m/S 748 mmHg 35%
    14:00 +35°C° 0 mm 2 m/S 748 mmHg 34%
    15:00 +35°C° 0 mm 2 m/S 747 mmHg 35%
    16:00 +34°C° 0,1 mm 2 m/S 747 mmHg 37%
    17:00 +34°C° 0,1 mm 2 m/S 747 mmHg 40%
    18:00 +32°C° 0,1 mm 2 m/S 747 mmHg 42%
    19:00 +30°C° 0,2 mm 3 m/S 748 mmHg 50%
    20:00 +28°C° 0,2 mm 4 m/S 748 mmHg 57%
    21:00 +27°C° 0,2 mm 5 m/S 748 mmHg 64%
    22:00 +26°C° 1,3 mm 5 m/S 748 mmHg 70%
    23:00 +25°C° 1,3 mm 5 m/S 748 mmHg 75%

    Morgen, 16 Juli, Montag

    Zeit Temperatur Niederschläge Wind Luftdruck Luftfeuchtigkeit
    00:00 +23°C° 1,3 mm 4 m/S 748 mmHg 81%
    01:00 +23°C° 1,8 mm 4 m/S 748 mmHg 82%
    02:00 +23°C° 1,8 mm 4 m/S 748 mmHg 83%
    03:00 +23°C° 1,8 mm 4 m/S 748 mmHg 84%
    04:00 +22°C° 0,8 mm 4 m/S 748 mmHg 84%
    05:00 +22°C° 0,8 mm 4 m/S 748 mmHg 84%
    06:00 +22°C° 0,8 mm 4 m/S 748 mmHg 84%
    07:00 +23°C° 0,7 mm 4 m/S 748 mmHg 81%
    08:00 +23°C° 0,7 mm 4 m/S 748 mmHg 79%
    09:00 +23°C° 0,7 mm 4 m/S 748 mmHg 76%
    10:00 +26°C° 0,1 mm 4 m/S 748 mmHg 69%
    11:00 +27°C° 0,1 mm 4 m/S 748 mmHg 61%
    12:00 +28°C° 0,1 mm 5 m/S 748 mmHg 54%
    13:00 +29°C° 0 mm 5 m/S 748 mmHg 51%
    14:00 +29°C° 0 mm 5 m/S 748 mmHg 49%
    15:00 +30°C° 0 mm 5 m/S 748 mmHg 46%
    16:00 +30°C° 0 mm 5 m/S 748 mmHg 47%
    17:00 +30°C° 0 mm 4 m/S 748 mmHg 47%
    18:00 +29°C° 0 mm 4 m/S 748 mmHg 48%
    19:00 +28°C° 0 mm 4 m/S 748 mmHg 52%
    20:00 +27°C° 0 mm 3 m/S 748 mmHg 56%
    21:00 +26°C° 0 mm 2 m/S 748 mmHg 60%
    22:00 +25°C° 0 mm 3 m/S 748 mmHg 62%
    23:00 +24°C° 0 mm 3 m/S 748 mmHg 64%

    übermorgen, 17 Juli, Dienstag

    Zeit Temperatur Niederschläge Wind Luftdruck Luftfeuchtigkeit
    00:00 +22°C° 0 mm 3 m/S 748 mmHg 67%
    01:00 +22°C° 0 mm 4 m/S 748 mmHg 68%
    02:00 +22°C° 0 mm 4 m/S 748 mmHg 69%
    03:00 +21°C° 0 mm 4 m/S 748 mmHg 70%
    04:00 +21°C° 0 mm 4 m/S 748 mmHg 71%
    05:00 +21°C° 0 mm 5 m/S 749 mmHg 72%
    06:00 +22°C° 0 mm 5 m/S 749 mmHg 72%
    07:00 +25°C° 0 mm 5 m/S 749 mmHg 65%
    08:00 +27°C° 0 mm 6 m/S 749 mmHg 58%
    09:00 +29°C° 0 mm 6 m/S 748 mmHg 51%
    10:00 +30°C° 0 mm 6 m/S 748 mmHg 48%
    11:00 +32°C° 0 mm 6 m/S 748 mmHg 44%
    12:00 +33°C° 0 mm 6 m/S 748 mmHg 40%
    13:00 +33°C° 0 mm 7 m/S 748 mmHg 40%
    14:00 +33°C° 0 mm 7 m/S 748 mmHg 39%
    15:00 +33°C° 0 mm 7 m/S 748 mmHg 39%
    16:00 +32°C° 0 mm 6 m/S 748 mmHg 39%
    17:00 +32°C° 0 mm 5 m/S 748 mmHg 40%
    18:00 +30°C° 0 mm 5 m/S 748 mmHg 41%
    19:00 +29°C° 0 mm 4 m/S 749 mmHg 45%
    20:00 +27°C° 0 mm 4 m/S 749 mmHg 49%
    21:00 +26°C° 0 mm 3 m/S 750 mmHg 53%
    22:00 +25°C° 0,1 mm 3 m/S 750 mmHg 56%
    23:00 +24°C° 0,1 mm 3 m/S 750 mmHg 59%

    18 Juli, Mittwoch

    Zeit Temperatur Niederschläge Wind Luftdruck Luftfeuchtigkeit
    00:00 +24°C° 0,1 mm 2 m/S 750 mmHg 62%
    01:00 +22°C° 0,2 mm 3 m/S 750 mmHg 67%
    02:00 +22°C° 0,2 mm 3 m/S 750 mmHg 73%
    03:00 +21°C° 0,2 mm 3 m/S 750 mmHg 78%
    04:00 +21°C° 0 mm 3 m/S 750 mmHg 79%
    05:00 +22°C° 0 mm 3 m/S 750 mmHg 81%
    06:00 +22°C° 0 mm 4 m/S 750 mmHg 82%
    07:00 +25°C° 0,1 mm 4 m/S 750 mmHg 74%
    08:00 +26°C° 0,1 mm 4 m/S 750 mmHg 67%
    09:00 +28°C° 0,1 mm 5 m/S 750 mmHg 59%
    10:00 +29°C° 0 mm 5 m/S 750 mmHg 54%
    11:00 +29°C° 0 mm 5 m/S 750 mmHg 49%
    12:00 +30°C° 0 mm 5 m/S 750 mmHg 44%
    13:00 +32°C° 0 mm 5 m/S 750 mmHg 42%
    14:00 +33°C° 0 mm 5 m/S 750 mmHg 39%
    15:00 +34°C° 0 mm 5 m/S 750 mmHg 37%
    16:00 +34°C° 0 mm 5 m/S 750 mmHg 39%
    17:00 +33°C° 0 mm 4 m/S 750 mmHg 41%
    18:00 +31°C° 0 mm 3 m/S 750 mmHg 43%
    19:00 +30°C° 0 mm 3 m/S 750 mmHg 46%
    20:00 +29°C° 0 mm 2 m/S 750 mmHg 49%
    21:00 +28°C° 0 mm 2 m/S 751 mmHg 52%
    22:00 +27°C° 0 mm 2 m/S 751 mmHg 55%
    23:00 +26°C° 0 mm 1 m/S 751 mmHg 58%

    19 Juli, Donnerstag

    Zeit Temperatur Niederschläge Wind Luftdruck Luftfeuchtigkeit
    00:00 +26°C° 0 mm 1 m/S 750 mmHg 61%
    01:00 +25°C° 0 mm 1 m/S 750 mmHg 63%
    02:00 +25°C° 0 mm 1 m/S 750 mmHg 65%
    03:00 +22°C° 0 mm 0 m/S 750 mmHg 67%
    04:00 +24°C° 0,4 mm 1 m/S 750 mmHg 68%
    05:00 +25°C° 0,4 mm 1 m/S 751 mmHg 69%
    06:00 +25°C° 0,4 mm 2 m/S 751 mmHg 70%
    07:00 +27°C° 0,1 mm 2 m/S 751 mmHg 63%
    08:00 +29°C° 0,1 mm 2 m/S 751 mmHg 56%
    09:00 +31°C° 0,1 mm 2 m/S 751 mmHg 49%
    10:00 +32°C° 0 mm 2 m/S 751 mmHg 45%
    11:00 +34°C° 0 mm 2 m/S 751 mmHg 40%
    12:00 +36°C° 0 mm 2 m/S 751 mmHg 35%
    13:00 +36°C° 0 mm 2 m/S 750 mmHg 34%
    14:00 +35°C° 0 mm 1 m/S 750 mmHg 33%
    15:00 +36°C° 0 mm 1 m/S 750 mmHg 31%
    16:00 +36°C° 0 mm 1 m/S 750 mmHg 32%
    17:00 +35°C° 0 mm 1 m/S 750 mmHg 32%
    18:00 +35°C° 0 mm 1 m/S 750 mmHg 33%
    19:00 +34°C° 0 mm 2 m/S 750 mmHg 37%
    20:00 +31°C° 0 mm 2 m/S 750 mmHg 42%
    21:00 +30°C° 0 mm 2 m/S 750 mmHg 47%
    22:00 +29°C° 0 mm 2 m/S 750 mmHg 50%
    23:00 +28°C° 0 mm 2 m/S 750 mmHg 53%

    20 Juli, Freitag

    Zeit Temperatur Niederschläge Wind Luftdruck Luftfeuchtigkeit
    00:00 +27°C° 0 mm 2 m/S 750 mmHg 56%
    01:00 +27°C° 0,2 mm 2 m/S 750 mmHg 58%
    02:00 +26°C° 0,2 mm 2 m/S 750 mmHg 61%
    03:00 +26°C° 0,2 mm 2 m/S 750 mmHg 63%
    04:00 +26°C° 0,1 mm 2 m/S 750 mmHg 65%
    05:00 +26°C° 0,1 mm 2 m/S 750 mmHg 66%
    06:00 +26°C° 0,1 mm 2 m/S 750 mmHg 67%
    07:00 +28°C° 0 mm 2 m/S 750 mmHg 60%
    08:00 +30°C° 0 mm 2 m/S 750 mmHg 54%
    09:00 +32°C° 0 mm 2 m/S 750 mmHg 47%
    10:00 +34°C° 0 mm 2 m/S 750 mmHg 42%
    11:00 +35°C° 0 mm 2 m/S 750 mmHg 38%
    12:00 +37°C° 0 mm 2 m/S 750 mmHg 33%
    13:00 +37°C° 0 mm 2 m/S 750 mmHg 31%
    14:00 +38°C° 0 mm 3 m/S 750 mmHg 29%
    15:00 +38°C° 0 mm 3 m/S 749 mmHg 28%
    16:00 +38°C° 0 mm 3 m/S 750 mmHg 29%
    17:00 +37°C° 0 mm 3 m/S 750 mmHg 30%
    18:00 +37°C° 0 mm 3 m/S 750 mmHg 30%
    19:00 +35°C° 0,6 mm 2 m/S 750 mmHg 38%
    20:00 +31°C° 0,6 mm 2 m/S 750 mmHg 45%
    21:00 +29°C° 0,6 mm 2 m/S 750 mmHg 53%
    22:00 +28°C° 0,4 mm 2 m/S 750 mmHg 55%
    23:00 +27°C° 0,4 mm 2 m/S 750 mmHg 58%
    Mehr zeigen